sat.trackr.live / text

‹ back to catalog

OPTISAT

NORAD 68418 · 2026-067C

PAYLOAD ACTIVE UNKNOWN

§ Identity

Operator
Country
GREC
Launch date
2026-03-30
Launch site
AFWTR
Launch vehicle
Mass (kg)
RCS (m²)

External: N2YO · Heavens-Above · Gunter

§ Orbital elements

Epoch: 2026-09-20T03:28:17.354784Z

Period
94.76 min
Inclination
97.4690°
Eccentricity
0.0002046
Mean motion
15.19687369 rev/d
Perigee alt
505.4 km
Apogee alt
508.2 km
Semi-major
6,884.9 km
B*
1.5567e-4
RAAN
220.6108°
Arg perigee
14.6357°
Mean anomaly
345.4936°
Rev number
2,636

§ Raw data

OPTISAT1 68418U 26067C   26263.14464531  .00003254  00000+0  15567-3 0  99952 68418  97.4690 220.6108 0002046  14.6357 345.4936 15.19687369 26367

JSON: /api/v1/satellites/68418 · /tle

For live sub-satellite position, see the globe view (requires WebGL).

§ Visibility from observer

Set your observer location to see the next 7 days of passes ≥ 10°. The values pass through the URL so the page stays shareable.

No JS? Fill the form by hand. The geolocation button needs JavaScript.

§ Radio — SatNOGS DB

ModeDescriptionDownlinkUplink
FM Telemetry 400.356 MHz

1 transmitter · refreshed weekly from db.satnogs.org